Location: Suiattle Valley
(48.3620°N, 121.4180°W)
Time: 12:46:35
(UTC-08:00)

N. Korean satellite - Visible Passes

Search period start: 20 January 2018 00:00
Search period end: 30 January 2018 00:00
Orbit: 459 x 515 km, 97.2° (Epoch: 19 January)

Date Brightness Start Highest point End Pass type
(mag) Time Alt. Az. Time Alt. Az. Time Alt. Az.
20 Jan 6.6 06:55:43 10° NNE 06:59:11 82° ESE 07:02:37 10° S visible
20 Jan 6.6 17:35:13 10° SSE 17:38:43 53° ENE 17:42:11 10° N visible
20 Jan 10.1 19:10:58 10° WSW 19:12:33 12° W 19:14:07 10° WNW visible
21 Jan 8.0 06:32:10 10° NNE 06:35:28 40° E 06:38:44 10° S visible
21 Jan 9.2 18:45:50 10° SSW 18:48:41 22° W 18:51:31 10° NW visible
22 Jan 9.3 06:08:56 10° NE 06:11:40 22° E 06:14:24 10° SE visible
22 Jan 8.0 18:21:31 10° S 18:24:53 40° W 18:28:16 10° NNW visible
23 Jan 10.0 05:46:25 10° ENE 05:47:48 12° E 05:49:11 10° ESE visible
23 Jan 6.6 17:57:37 10° S 18:01:11 81° WSW 18:04:43 10° NNW visible
24 Jan 6.6 06:54:31 10° NNE 06:57:59 80° ESE 07:01:27 10° S visible
24 Jan 6.7 17:34:05 10° SSE 17:37:32 51° ENE 17:40:58 10° N visible
24 Jan 10.1 19:09:46 10° WSW 19:11:21 12° W 19:12:55 10° WNW visible
25 Jan 8.1 06:30:58 10° NNE 06:34:15 39° E 06:37:32 10° S visible
25 Jan 9.2 18:44:38 10° SSW 18:47:28 22° W 18:50:17 10° NW visible
26 Jan 9.4 06:07:44 10° NE 06:10:27 21° E 06:13:11 10° SE visible
26 Jan 7.9 18:20:19 10° S 18:23:41 41° W 18:27:01 10° NNW visible
27 Jan 10.1 05:45:14 10° ENE 05:46:34 12° E 05:47:54 10° ESE visible
27 Jan 6.6 17:56:26 10° S 17:59:57 83° WSW 18:03:28 10° NNW visible
28 Jan 6.7 06:53:15 10° NNE 06:56:45 78° ESE 07:00:14 10° S visible
28 Jan 6.7 17:32:54 10° SSE 17:36:18 49° ENE 17:39:42 10° N visible
28 Jan 10.1 19:08:31 10° WSW 19:10:06 13° W 19:11:42 10° WNW visible
29 Jan 8.1 06:29:43 10° NNE 06:33:00 38° E 06:36:18 10° SSE visible
29 Jan 9.2 18:43:24 10° SSW 18:46:14 22° W 18:49:03 10° NW visible
